Regional Weather Roundup
Issued by NWS State College, PA

Home | Current Version | Previous Version | Graphics & Text | Print | Product List | Glossary On
Versions: 1 2 3 4 5 6 7 8 9 10 11 12 13 14 15 16 17 18 19 20 21 22 23 24 25 26 27 28 29 30 31 32 33 34 35 36 37 38 39 40 41 42 43 44 45 46 47 48 49 50
000
ASUS41 KCTP 111510
RWRCTP

REGIONAL WEATHER ROUNDUP
NATIONAL WEATHER SERVICE STATE COLLEGE PA
1100 AM EDT FRI JUL 11 2014

Note: "fair" indicates few or no clouds below 12,000 feet with no
significant weather and/or obstructions to visibility.

* = STATION THAT DOES NOT REPORT PRECIPITATION /E.G. RAIN...SNOW...ETC/
    THUNDER OR FOG.

PAZ002>004-007>009-013>016-020>023-029>032-111600-
WESTERN PENNSYLVANIA

CITY           SKY/WX    TMP DP  RH WIND       PRES   REMARKS
ERIE           SUNNY     73  58  59 N6        30.24R
MEADVILLE      SUNNY     75  58  55 VRB6      30.25S
FRANKLIN*      SUNNY     73  57  56 N5        30.26S
NEW CASTLE     NOT AVBL
BEAVER COUNTY  SUNNY     75  63  64 NW3       30.24R
BUTLER*        SUNNY     75  63  64 CALM      30.25S
PITTSBURGH INT MOSUNNY   77  62  59 CALM      30.23S
PITTSBURGH     MOSUNNY   78  61  55 CALM      30.22S
INDIANA*       SUNNY     77  61  57 VRB3      30.27S
LATROBE        SUNNY     77  66  69 NE6       30.23S
WASHINGTON CO* SUNNY     77  63  61 CALM      30.23S
$$

PAZ004>006-010>012-017>019-024>028-033>037-041-042-045-046-049>053-111600-
CENTRAL PENNSYLVANIA

CITY           SKY/WX    TMP DP  RH WIND       PRES   REMARKS
BRADFORD       MOSUNNY   73  56  54 NE6       30.27S
DUBOIS         SUNNY     76  60  57 CALM      30.25S
CLEARFIELD     SUNNY     73  60  63 VRB3      30.26S
JOHNSTOWN      MOSUNNY   71  60  68 SW6       30.27R
ALTOONA        SUNNY     73  64  73 VRB3      30.27R
STATE COLLEGE  SUNNY     72  63  73 CALM      30.25F
WILLIAMSPORT   SUNNY     75  58  55 CALM      30.23S
SELINSGROVE    SUNNY     77  63  61 CALM      30.23S
FT INDIANTOWN  SUNNY     78  74  87 VRB5      30.23R
CAPITAL CITY   SUNNY     76  65  68 VRB3      30.22R
HARRISBURG     MOSUNNY   80  64  58 VRB3      30.21R
YORK           MOSUNNY   78  66  66 CALM      30.22R
$$

PAZ038>040-043-044-047-048-054-055-060>062-067>071-111600-
EASTERN PENNSYLVANIA

CITY           SKY/WX    TMP DP  RH WIND       PRES   REMARKS
SCRANTON       MOSUNNY   76  58  53 CALM      30.24S
MOUNT POCONO   SUNNY     71  56  58 E7        30.28S
ALLENTOWN      SUNNY     77  56  48 E8        30.23S
QUAKERTOWN*    MOSUNNY   77  61  57 E5        30.24R
READING        SUNNY     78  62  57 VRB6      30.21S
LANCASTER      SUNNY     76  66  71 E7        30.22R
COATESVILLE    SUNNY     77  66  69 E8        30.23S
POTTSTOWN      SUNNY     77  63  61 E5        30.23S
BLUE BELL      SUNNY     81  63  54 CALM      30.21R
DOYLESTOWN     SUNNY     77  61  57 NE5       30.22R
WILLOW GROVE   NOT AVBL
NORTH PHILA    SUNNY     81  61  50 NE9       30.22R
PHILADELPHIA   MOSUNNY   83  62  49 NE9       30.20S
$$



USA.gov is the U.S. government's official web portal to all federal, state and local government web resources and services.